Location: Allos
(44.2333°N, 6.6333°E)
Time: 18:27:24
(UTC+00:00)

SAR-Lupe-4 - Visible Passes

Search period start: 16 April 2021 00:00
Search period end: 26 April 2021 00:00
Orbit: 481 x 485 km, 98.2° (Epoch: 26 March)

Date Brightness Start Highest point End Pass type
(mag) Time Alt. Az. Time Alt. Az. Time Alt. Az.
16 Apr 7.1 20:09:12 10° NW 20:10:35 12° WNW 20:11:58 10° W visible
17 Apr 6.4 19:43:06 10° NNW 19:45:55 22° WNW 19:48:43 10° WSW visible
18 Apr 5.0 19:17:43 10° N 19:21:09 42° WNW 19:24:33 10° SW visible
19 Apr 3.6 18:52:40 10° NNE 18:56:17 89° E 18:59:53 10° SSW visible
20 Apr 6.9 20:02:17 10° NNW 20:04:19 15° WNW 20:06:20 10° W visible
21 Apr 6.0 19:36:32 10° N 19:39:36 27° WNW 19:42:39 10° SW visible
22 Apr 4.5 19:11:16 10° N 19:14:47 54° WNW 19:18:18 10° SSW visible
24 Apr 6.8 19:55:32 10° NNW 19:58:00 18° WNW 20:00:27 10° WSW visible
25 Apr 5.6 19:29:58 10° N 19:33:14 33° WNW 19:36:29 10° SW visible
